Weather History for KMGC - November, 2013

Change the Weather History Date:

Saturday, November 9, 2013

  Actual Average (KVPZ) Record (KVPZ)
Temperature  
Mean Temperature 52 °F 44 °F  
Max Temperature 59 °F 52 °F 74 °F (1999)
Min Temperature 42 °F 36 °F 20 °F (2003)
Degree Days  
Heating Degree Days 14 21  
Month to date heating degree days 175  
Since 1 July heating degree days 705  
Cooling Degree Days 0 0  
Month to date cooling degree days 0  
Year to date cooling degree days 713  
Growing Degree Days 2 (Base 50)    
Moisture  
Dew Point 33 °F    
Average Humidity 54    
Maximum Humidity 62    
Minimum Humidity 42    
Precipitation  
Precipitation 0.00 in 0.11 in 0.94 in (2000)
Month to date precipitation 1.14  
Year to date precipitation 33.14  
Sea Level Pressure  
Sea Level Pressure 29.95 in    
Wind  
Wind Speed 15 mph (WSW)    
Max Wind Speed 23 mph    
Max Gust Speed 30 mph    
Visibility 10 miles    
Events      
T = Trace of Precipitation, MM = Missing Value Source: NWS Daily Summary

Daily Weather History Graph

Daily Weather History Graph

Search for Another Location

Airport or City:

Trip Planner

Search our weather history database for the weather conditions in past years. The results will help you decide how hot, cold, wet, or windy it might be!

Date:

Astronomy

Nov. 09, 2013 Rise Set
Actual Time 6:29 AM CST 4:32 PM CST
Civil Twilight 5:59 AM CST 5:01 PM CST
Nautical Twilight 5:26 AM CST 5:35 PM CST
Astronomical Twilight 4:54 AM CST 6:07 PM CST
Moon 12:05 PM CST (11/9) 11:03 PM CST (11/9)
Length of Visible Light 11h 01m
Length of Day
10h 02m
Waxing Crescent, 44% of the Moon is Illuminated
Nov 9
Waxing Crescent
Nov 9
First Quarter
Nov 17
Full
Nov 25
Last Quarter
Dec 2
New

Hourly Weather History & Observations

Time (CST) Temp. Windchill Dew Point Humidity Pressure Visibility Wind Dir Wind Speed Gust Speed Precip Events Conditions
12:15 AM 44.6 °F 38.4 °F 28.4 °F 53% 30.02 in 10.0 mi South 12.7 mph 23.0 mph N/A   Overcast
12:35 AM 44.6 °F 37.4 °F 28.4 °F 53% 30.01 in 10.0 mi South 16.1 mph 23.0 mph N/A   Overcast
12:55 AM 44.6 °F 38.1 °F 28.4 °F 53% 30.00 in 10.0 mi South 13.8 mph 20.7 mph N/A   Mostly Cloudy
1:15 AM 44.6 °F 37.2 °F 28.4 °F 53% 29.98 in 10.0 mi South 17.3 mph 24.2 mph N/A   Mostly Cloudy
1:35 AM 44.6 °F 37.8 °F 28.4 °F 53% 29.98 in 10.0 mi South 15.0 mph 27.6 mph N/A   Scattered Clouds
1:55 AM 44.6 °F 38.1 °F 28.4 °F 53% 29.97 in 10.0 mi South 13.8 mph 29.9 mph N/A   Scattered Clouds
2:15 AM 44.6 °F 36.9 °F 28.4 °F 53% 29.95 in 10.0 mi South 18.4 mph 24.2 mph N/A   Scattered Clouds
2:35 AM 44.6 °F 37.4 °F 28.4 °F 53% 29.95 in 10.0 mi South 16.1 mph 27.6 mph N/A   Clear
2:55 AM 44.6 °F 37.8 °F 28.4 °F 53% 29.94 in 10.0 mi SSW 15.0 mph 25.3 mph N/A   Clear
3:15 AM 44.6 °F 37.2 °F 30.2 °F 57% 29.93 in 10.0 mi South 17.3 mph 24.2 mph N/A   Clear
3:35 AM 44.6 °F 37.8 °F 30.2 °F 57% 29.92 in 10.0 mi South 15.0 mph 26.5 mph N/A   Clear
3:55 AM 44.6 °F 37.4 °F 30.2 °F 57% 29.92 in 10.0 mi SSW 16.1 mph 26.5 mph N/A   Clear
4:15 AM 44.6 °F 38.1 °F 30.2 °F 57% 29.92 in 10.0 mi SSW 13.8 mph 24.2 mph N/A   Clear
4:35 AM 44.6 °F 37.4 °F 32.0 °F 61% 29.92 in 10.0 mi South 16.1 mph 24.2 mph N/A   Clear
4:55 AM 44.6 °F 37.4 °F 32.0 °F 61% 29.92 in 10.0 mi SSW 16.1 mph 24.2 mph N/A   Clear
5:15 AM 44.6 °F 36.9 °F 32.0 °F 61% 29.92 in 10.0 mi SSW 18.4 mph 24.2 mph N/A   Clear
5:35 AM 44.6 °F 37.4 °F 32.0 °F 61% 29.92 in 10.0 mi SSW 16.1 mph 26.5 mph N/A   Clear
5:55 AM 44.6 °F 37.4 °F 32.0 °F 61% 29.91 in 10.0 mi SSW 16.1 mph 25.3 mph N/A   Clear
6:15 AM 44.6 °F 36.9 °F 32.0 °F 61% 29.91 in 10.0 mi SSW 18.4 mph 24.2 mph N/A   Clear
6:35 AM 44.6 °F 36.6 °F 32.0 °F 61% 29.92 in 10.0 mi SSW 19.6 mph - N/A   Clear
6:55 AM 44.6 °F 38.1 °F 32.0 °F 61% 29.91 in 10.0 mi SSW 13.8 mph 20.7 mph N/A   Clear
7:15 AM 44.6 °F 38.4 °F 32.0 °F 61% 29.92 in 10.0 mi SW 12.7 mph 20.7 mph N/A   Clear
7:35 AM 46.4 °F 38.5 °F 33.8 °F 62% 29.92 in 10.0 mi SSW 21.9 mph 26.5 mph N/A   Clear
7:55 AM 46.4 °F 39.2 °F 33.8 °F 62% 29.92 in 10.0 mi SW 18.4 mph 26.5 mph N/A   Clear
8:15 AM 46.4 °F 40.1 °F 33.8 °F 62% 29.92 in 10.0 mi SW 15.0 mph 24.2 mph N/A   Clear
8:35 AM 46.4 °F 40.7 °F 33.8 °F 62% 29.92 in 10.0 mi SW 12.7 mph 20.7 mph N/A   Clear
8:55 AM 50.0 °F - 35.6 °F 58% 29.91 in 10.0 mi SW 15.0 mph 21.9 mph N/A   Clear
9:15 AM 50.0 °F - 35.6 °F 58% 29.90 in 10.0 mi SW 17.3 mph 21.9 mph N/A   Clear
9:35 AM 51.8 °F - 35.6 °F 54% 29.90 in 10.0 mi SW 16.1 mph 26.5 mph N/A   Scattered Clouds
9:55 AM 51.8 °F - 35.6 °F 54% 29.90 in 10.0 mi SW 18.4 mph 26.5 mph N/A   Scattered Clouds
10:15 AM 53.6 °F - 35.6 °F 51% 29.91 in 10.0 mi WSW 23.0 mph 29.9 mph N/A   Scattered Clouds
10:35 AM 53.6 °F - 37.4 °F 54% 29.91 in 10.0 mi WSW 20.7 mph 28.8 mph N/A   Clear
10:55 AM 53.6 °F - 37.4 °F 54% 29.91 in 10.0 mi SW 15.0 mph 27.6 mph N/A   Clear
11:15 AM 55.4 °F - 37.4 °F 51% 29.90 in 10.0 mi WSW 15.0 mph 27.6 mph N/A   Clear
11:35 AM 55.4 °F - 35.6 °F 47% 29.90 in 10.0 mi WSW 17.3 mph 29.9 mph N/A   Clear
11:55 AM 55.4 °F - 35.6 °F 47% 29.89 in 10.0 mi WSW 18.4 mph 29.9 mph N/A   Scattered Clouds
12:15 PM 57.2 °F - 37.4 °F 48% 29.89 in 10.0 mi WSW 16.1 mph 25.3 mph N/A   Mostly Cloudy
12:35 PM 55.4 °F - 35.6 °F 47% 29.90 in 10.0 mi West 16.1 mph 26.5 mph N/A   Scattered Clouds
12:55 PM 55.4 °F - 35.6 °F 47% 29.89 in 10.0 mi West 17.3 mph 29.9 mph N/A   Clear
1:15 PM 57.2 °F - 35.6 °F 44% 29.89 in 10.0 mi West 17.3 mph 28.8 mph N/A   Clear
1:35 PM 59.0 °F - 35.6 °F 42% 29.89 in 10.0 mi WSW 15.0 mph 23.0 mph N/A   Clear
1:55 PM 57.2 °F - 35.6 °F 44% 29.90 in 10.0 mi West 12.7 mph 21.9 mph N/A   Clear
2:15 PM 55.4 °F - 35.6 °F 47% 29.91 in 10.0 mi West 13.8 mph 20.7 mph N/A   Scattered Clouds
2:35 PM 57.2 °F - 35.6 °F 44% 29.91 in 10.0 mi West 17.3 mph 24.2 mph N/A   Scattered Clouds
2:55 PM 57.2 °F - 35.6 °F 44% 29.91 in 10.0 mi West 10.4 mph 19.6 mph N/A   Scattered Clouds
3:15 PM 55.4 °F - 37.4 °F 51% 29.92 in 10.0 mi West 13.8 mph 19.6 mph N/A   Scattered Clouds
3:35 PM 55.4 °F - 37.4 °F 51% 29.93 in 10.0 mi West 8.1 mph 17.3 mph N/A   Scattered Clouds
3:55 PM 53.6 °F - 37.4 °F 54% 29.93 in 10.0 mi West 13.8 mph 25.3 mph N/A   Mostly Cloudy
4:15 PM 53.6 °F - 35.6 °F 51% 29.94 in 10.0 mi West 12.7 mph 20.7 mph N/A   Mostly Cloudy
4:35 PM 53.6 °F - 35.6 °F 51% 29.95 in 10.0 mi West 11.5 mph 21.9 mph N/A   Mostly Cloudy
4:55 PM 53.6 °F - 35.6 °F 51% 29.96 in 10.0 mi West 12.7 mph 24.2 mph N/A   Mostly Cloudy
5:15 PM 51.8 °F - 35.6 °F 54% 29.97 in 10.0 mi West 10.4 mph 17.3 mph N/A   Scattered Clouds
5:35 PM 51.8 °F - 35.6 °F 54% 29.97 in 10.0 mi WSW 15.0 mph - N/A   Scattered Clouds
5:55 PM 51.8 °F - 35.6 °F 54% 29.98 in 10.0 mi West 10.4 mph 20.7 mph N/A   Clear
6:15 PM 51.8 °F - 35.6 °F 54% 29.98 in 10.0 mi West 11.5 mph 20.7 mph N/A   Clear
6:35 PM 51.8 °F - 37.4 °F 58% 29.99 in 10.0 mi West 11.5 mph 16.1 mph N/A   Clear
6:55 PM 51.8 °F - 35.6 °F 54% 30.00 in 10.0 mi West 13.8 mph 24.2 mph N/A   Clear
7:15 PM 51.8 °F - 35.6 °F 54% 30.01 in 10.0 mi West 16.1 mph 24.2 mph N/A   Clear
7:35 PM 50.0 °F - 35.6 °F 58% 30.01 in 10.0 mi West 15.0 mph 28.8 mph N/A   Clear
8:35 PM 50.0 °F - 35.6 °F 58% 30.03 in 10.0 mi WNW 15.0 mph 20.7 mph N/A   Scattered Clouds
8:55 PM 50.0 °F - 35.6 °F 58% 30.03 in 10.0 mi West 11.5 mph 25.3 mph N/A   Mostly Cloudy
9:15 PM 48.2 °F - 33.8 °F 58% 30.04 in 10.0 mi West 11.5 mph 21.9 mph N/A   Mostly Cloudy
9:35 PM 50.0 °F - 33.8 °F 54% 30.05 in 10.0 mi West 11.5 mph 19.6 mph N/A   Mostly Cloudy
9:55 PM 46.4 °F 40.4 °F 32.0 °F 57% 30.05 in 10.0 mi WNW 13.8 mph 25.3 mph N/A   Scattered Clouds
10:15 PM 46.4 °F 40.1 °F 32.0 °F 57% 30.06 in 10.0 mi West 15.0 mph 26.5 mph N/A   Scattered Clouds
10:35 PM 46.4 °F 39.5 °F 32.0 °F 57% 30.06 in 10.0 mi West 17.3 mph 25.3 mph N/A   Mostly Cloudy
10:55 PM 46.4 °F 39.0 °F 32.0 °F 57% 30.06 in 10.0 mi West 19.6 mph 28.8 mph N/A   Mostly Cloudy
11:15 PM 44.6 °F 37.2 °F 30.2 °F 57% 30.07 in 10.0 mi West 17.3 mph 27.6 mph N/A   Overcast
11:35 PM 44.6 °F 37.2 °F 28.4 °F 53% 30.07 in 10.0 mi West 17.3 mph 26.5 mph N/A   Scattered Clouds
11:55 PM 42.8 °F 34.8 °F 26.6 °F 53% 30.08 in 10.0 mi West 17.3 mph 26.5 mph N/A   Scattered Clouds